STARLINK-1867 (47153 NORAD) Tracking and Keplerian Element Data

This shows tracking and keplerian element data for the satellite.

Feedback or suggestion? Click here.




ElementValue
Catalog47153
NameSTARLINK-1867
Epoch Orbit185
Epoch Day99.91667824
Epoch Year2021
RAAN83.6511
Inclination53.0558
Eccentricity0.0001372
Argument of Perigee87.3902
Mean Anonmoly11.1722
Mean Motion15.06395197
Decay Rate-7.03E-06
L11 47153U 20088AH 21099.91667824 -.00000703 00000-0 -28288-4 0 9996
L22 47153 53.0558 83.6511 0001372 87.3902 11.1722 15.06395197 1858

Live tracking and technical data element details for STARLINK-1867 (NORAD 47153). STARLINK-1867 can be tracked NOW for your location showing map with azimuth and elevation plus other details from your city location.

Track the satellite on the map from your city or location and see movement details for azimuth, elevation, latitude, longitude, range, height, and movement on the map or in text.







IsCatalogInMostPopularTable: catalog: 47153, numindb: 50
Update: records affected: 1



GetName: 47153 STARLINK-1867

Hit Count: updated at: Sat, 10 Apr 2021 19:07:48 GMT